ARIANE 5 R/B (46116 NORAD) Tracking and Keplerian Element Data

This shows tracking and keplerian element data for the satellite.

Feedback or suggestion? Click here.




ElementValue
Catalog46116
NameARIANE 5 R/B
Epoch Orbit60
Epoch Day255.74430235
Epoch Year2020
RAAN116.213
Inclination5.8267
Eccentricity0.7267606
Argument of Perigee197.3145
Mean Anonmoly110.7153
Mean Motion2.28684936
Decay Rate7E-08
L11 46116U 20056E 20255.74430235 .00000007 00000-0 16225-3 0 9999
L22 46116 5.8267 116.2130 7267606 197.3145 110.7153 2.28684936 608

Live tracking and technical data element details for ARIANE 5 R/B (NORAD 46116). ARIANE 5 R/B can be tracked NOW for your location showing map with azimuth and elevation plus other details from your city location.

Track the satellite on the map from your city or location and see movement details for azimuth, elevation, latitude, longitude, range, height, and movement on the map or in text.







IsCatalogInMostPopularTable: catalog: 46116, numindb: 21
Update: records affected: 1



GetName: 46116 ARIANE 5 R/B

Hit Count: updated at: Wed, 02 Dec 2020 19:31:40 GMT